Vertical_Velocity
-4 -3 -2 3 2 4 -2 -2 8 4 2 -1 -2 -7 -4 4 2 18 -5 3 7 -0 -0 4 3 -3 -1 2 -2 -0 -5 -4 -1 -3 -2 -2 -1 -2 -4 1 1 -1 -2 -0 -1 -3 -8 2 0 -4 -6 2 1 -0
-2 -2 1 0 -3 -0 8 1 -4 -5 -3 -3 -4 4 -2 -1 6 10 -3 1 -2 12 13 3 8 3 -2 5 -4 -0 -2 0 -0 -3 -1 -1 -1 -2 -1 -2 -2 -4 -5 -6 -7 -7 -0 5 0 4 1 -0 -1 0
-1 -2 -5 -3 8 1 0 -2 -1 -3 -1 3 2 8 1 5 -3 10 -1 2 0 1 5 7 3 9 4 -1 3 -7 1 0 2 -0 -2 -0 -3 -1 -1 -1 -2 -1 1 -2 -5 -3 1 2 3 1 1 -1 0 1
-0 -4 1 8 -0 -2 1 -1 2 2 -1 -2 -2 2 -3 -7 2 3 1 3 1 2 -0 4 7 1 1 3 0 -4 0 2 1 1 -2 -0 -2 -1 1 -1 -3 -1 -4 -0 -1 -0 2 -1 0 2 1 1 -0 2
-4 -1 -3 -3 -2 -1 -2 5 -3 -2 -5 -2 1 -2 -3 -2 0 0 -1 -0 4 13 1 -0 6 5 1 -4 -2 -1 1 6 2 -3 -3 -0 1 -4 0 -3 -1 2 -0 -3 -5 -0 -1 0 -2 -0 0 0 0 -2
-1 -2 -6 -4 0 -0 5 -1 -0 -2 -1 -1 7 -4 -3 2 4 1 2 0 12 -1 -3 -1 2 -3 2 3 3 -0 -2 -4 -3 -3 1 2 4 -7 -3 -0 2 3 3 2 0 1 1 1 -0 -2 -1 -1 3 0
-0 -4 -3 2 0 1 2 -1 -3 -2 -1 -1 1 12 -3 -5 -1 -7 3 -9 0 5 -1 2 -0 -3 1 1 -2 -3 1 -5 -4 -0 -2 -0 -3 -4 -1 -1 -1 1 1 1 2 0 0 1 1 -0 -2 -2 -2 1
-4 -2 -2 -0 1 0 0 -1 -2 -1 -1 -2 5 1 3 -1 0 -5 -3 -4 3 -8 -4 -2 1 -3 -5 -1 -1 1 -2 -1 -3 1 -0 -2 -3 -2 -3 0 1 1 2 1 0 1 -0 1 1 1 -0 -1 -2 -2
0 1 2 -1 -1 -1 -1 -1 -1 0 1 -1 8 1 2 -1 -3 1 7 1 -2 -9 -5 -3 2 1 -7 2 2 0 -0 -3 3 -2 0 -7 0 -0 -0 1 1 2 1 1 -1 1 0 -1 -1 1 1 2 0 -2
-1 0 1 -1 -1 -2 -5 -3 0 1 1 1 2 1 -3 0 1 3 4 -9 -14 -3 -5 -2 0 -1 4 -2 -3 -1 0 1 -1 4 -3 -3 2 6 2 2 2 1 1 1 -1 -2 -1 -1 -1 -1 -1 1 2 3
0 0 -3 -1 -2 -3 -2 -4 -2 -2 1 1 -2 -2 1 2 1 -5 -3 -7 -1 -5 -3 2 3 2 -0 1 1 2 0 -0 -3 6 -6 1 -1 0 3 1 1 1 -0 1 3 2 2 0 1 -1 -1 0 1 1
2 1 -4 -3 -2 -1 -2 -4 -1 -4 -5 -2 -3 -1 -1 -10 -4 -13 -0 -6 -5 2 -5 1 -0 1 -6 6 2 -3 -1 -4 1 1 -5 0 -1 1 -0 1 -1 -1 -1 -1 1 1 -0 -0 1 0 -1 -2 -1 -0
2 -1 -1 -1 -2 -1 -3 -1 0 -2 1 1 -4 -8 -8 0 -19 -7 -1 -7 -4 -1 0 -6 -8 2 -2 -2 0 -2 -4 2 -1 -4 2 1 2 0 -1 0 -0 1 -0 -0 -0 0 0 1 0 1 0 1 0 -0
1 -3 -1 -2 -6 -2 -4 -0 0 1 1 -12 -5 -8 -7 -4 -1 0 -0 0 -6 -2 -2 1 -0 4 0 -5 2 -5 4 -6 -3 -2 0 -2 2 1 -0 1 -0 0 1 -0 -0 -0 0 1 1 -0 -0 -0 -0 -0
-0 -2 0 -1 -3 -2 -0 -3 -5 1 -8 -9 -8 -1 -2 2 2 0 3 0 1 0 2 -1 1 3 -1 -3 -0 -3 -7 -0 1 2 0 2 2 -1 -1 -1 -0 0 -0 -0 -0 -0 -0 0 -0 1 0 0 0 -0
0 2 -7 -4 -0 -0 2 3 -7 -22 -9 -6 -9 -4 0 -3 -6 -4 -1 -1 3 2 2 2 -0 -4 -0 -0 -5 2 -3 2 1 1 2 3 2 1 -0 -0 0 0 0 0 -0 -1 -1 -1 -1 -1 -0 -0 1 -0
1 -0 -1 -0 -1 -2 -0 -12 -11 -14 -3 -5 -5 3 -1 1 3 2 4 2 3 1 -1 -1 -5 -0 -2 -4 -2 -0 1 1 3 -0 -1 1 2 -1 -1 -1 0 0 0 0 0 1 -0 -0 -0 -0 -1 1 -0 0
-6 -2 -1 -1 0 4 -11 -18 -7 -9 -4 2 -2 4 2 1 3 1 2 1 -1 -1 -1 -1 0 -5 0 -1 -2 -1 -1 -1 2 0 -1 0 -0 -1 0 -1 -0 -0 -1 -0 0 -0 -0 -1 -1 -0 -0 0 -1 0
-4 -1 0 0 -0 -13 -6 -9 -1 -6 -1 3 2 -0 -1 7 10 8 5 2 -0 1 -1 -2 -5 -0 0 -0 -1 -1 1 2 -1 -3 -1 0 1 0 -0 -0 -0 -0 0 -0 -0 1 1 0 -1 -2 -2 -1 -2 -1
-2 -4 -1 -1 -0 -8 -4 -5 1 -3 -1 -1 1 -3 -0 3 6 3 -0 -4 -7 -1 -7 -4 1 0 1 1 2 1 2 1 0 -3 -2 1 1 -1 -0 -1 -1 -1 -1 -0 0 0 -0 -0 4 1 1 0 3 -2
-0 -3 3 7 -20 -9 -4 0 -3 -3 1 -1 -0 -1 -1 -1 -7 -9 -6 -4 -10 -2 0 0 3 3 3 2 2 2 2 1 1 3 -0 -6 0 0 -0 0 -0 1 -0 -0 -1 -0 1 0 -1 -0 -1 -0 -0 -0
-3 1 -5 -7 -8 -4 -4 -1 -1 -1 0 -2 -0 -0 -2 -3 -2 -3 0 -8 1 2 3 5 2 0 -0 -0 -1 1 -0 0 1 0 2 0 -4 -2 -1 -1 -2 -1 0 -0 -0 -1 -1 0 -1 -2 -2 -3 -0 -1
-3 -5 -8 -2 -5 -3 -0 1 -1 -1 -2 -0 -0 -1 -1 -0 0 1 -2 1 3 7 5 2 2 2 1 2 2 1 1 1 1 1 0 1 2 0 0 1 0 -1 -2 1 -0 -1 -2 0 1 1 -1 -1 1 -1
-1 -7 -5 -5 -1 -1 0 -2 -1 -1 -0 -3 -1 -1 -2 -1 -0 -3 -1 1 3 -0 -1 -0 -1 -2 1 3 1 0 0 1 1 2 0 -0 0 2 1 1 1 2 0 -1 0 0 -0 -1 0 -1 0 -2 -1 1
-9 -6 -2 -2 -0 -2 -3 -2 -1 -2 -0 0 -1 -2 -1 0 -2 -1 0 -0 -3 0 1 1 1 2 1 1 1 1 2 0 -1 -1 1 1 0 1 2 3 2 -1 -0 -1 -0 -1 0 1 1 1 1 1 -1 2
-9 -1 -3 2 0 -4 1 -1 -0 -0 -0 -1 -0 0 0 -0 -3 -0 2 1 0 1 1 1 1 -2 1 3 -1 -2 -1 1 2 2 1 1 0 0 -0 -2 -5 -2 1 2 2 0 1 2 1 0 -0 0 0 -1
-4 0 -0 0 1 0 -1 0 -0 -1 -1 -1 -0 -2 -2 -3 -0 0 1 2 1 2 3 2 2 2 1 -0 2 2 0 -0 -1 -1 0 1 3 4 4 2 -2 1 1 1 3 2 0 0 -1 -0 0 2 2 1
0 1 -2 0 -0 0 -1 -0 -0 -0 1 1 1 -2 -2 -1 0 -0 2 3 3 3 4 3 2 0 -0 -0 0 1 2 3 3 2 4 10 3 1 1 3 4 6 4 2 1 1 1 1 1 0 0 0 0 1
-2 -0 0 -2 0 -1 -1 0 1 1 1 1 0 -0 0 0 1 1 0 0 3 1 -1 -2 0 1 3 1 -0 0 0 -0 -4 -6 -3 -2 -6 -4 2 1 -1 -0 -0 0 4 3 2 3 1 -0 0 -0 -0 -0
-1 0 -1 -1 -1 0 1 0 -1 1 1 1 0 0 -0 0 0 1 2 1 -3 -2 2 -0 -1 -1 -2 -1 0 1 0 -1 -1 -1 -2 -3 -2 -2 -2 -1 -0 0 0 0 -0 0 2 1 2 3 2 1 1 1
0 0 -2 -0 -1 -0 -0 -0 0 0 1 1 1 0 0 0 0 1 2 2 3 3 2 1 1 -0 0 0 -2 -1 2 3 3 4 3 3 3 3 2 1 2 0 -0 -0 -0 -0 -0 -0 -1 -1 -1 -0 -0 -1
0 -1 -1 -1 -1 -1 -0 0 -0 -0 0 -0 0 -0 -0 0 -0 1 0 0 2 1 1 2 2 0 -0 0 0 1 1 1 3 5 -2 -2 2 1 1 2 1 0 1 1 1 0 -0 -1 -0 -0 -0 -0 -1 -1
-0 -1 -1 -1 -1 -0 -0 -0 -0 -1 -0 -0 -1 -1 -0 -0 -1 -0 1 -0 -0 -1 -1 -0 0 0 1 1 1 1 1 1 -1 0 1 1 2 1 2 -0 -0 1 1 -0 1 1 1 1 1 0 0 0 -0 -1
Height
1545 1543 1541 1538 1535 1533 1530 1528 1525 1521 1518 1514 1511 1508 1504 1500 1497 1495 1493 1493 1492 1488 1484 1482 1482 1483 1484 1485 1488 1489 1491 1489 1488 1495 1493 1496 1500 1501 1509 1516 1516 1514 1523 1529 1531 1543 1530 1524 1521 1521 1530 1527 1526 1524
1543 1542 1539 1536 1533 1531 1528 1525 1521 1517 1513 1510 1507 1503 1499 1495 1493 1490 1489 1488 1486 1486 1482 1480 1479 1480 1482 1484 1485 1486 1489 1488 1487 1490 1495 1493 1494 1504 1518 1519 1521 1522 1529 1530 1535 1535 1530 1530 1529 1529 1529 1528 1527 1526
1541 1539 1537 1535 1532 1529 1525 1521 1517 1514 1509 1505 1502 1497 1494 1492 1490 1486 1484 1484 1483 1482 1482 1481 1481 1481 1482 1483 1483 1485 1487 1487 1486 1486 1488 1493 1501 1504 1513 1520 1525 1525 1525 1530 1531 1533 1531 1531 1531 1531 1530 1529 1528 1526
1539 1537 1535 1533 1530 1526 1522 1518 1513 1509 1505 1502 1498 1494 1490 1487 1484 1482 1480 1479 1480 1480 1479 1484 1481 1481 1483 1483 1483 1485 1485 1486 1486 1487 1490 1496 1500 1505 1514 1520 1525 1532 1528 1534 1537 1533 1533 1532 1532 1531 1531 1529 1528 1526
1538 1536 1533 1530 1527 1523 1519 1514 1509 1505 1501 1498 1494 1490 1487 1484 1482 1479 1478 1477 1477 1479 1477 1483 1484 1485 1484 1484 1484 1484 1484 1485 1486 1490 1495 1504 1506 1510 1519 1522 1532 1533 1534 1536 1539 1534 1534 1534 1533 1531 1531 1530 1528 1527
1536 1533 1530 1527 1524 1520 1516 1510 1506 1502 1499 1495 1492 1488 1486 1483 1480 1479 1479 1479 1478 1477 1479 1484 1489 1488 1488 1488 1486 1485 1485 1485 1488 1495 1502 1506 1510 1512 1525 1534 1537 1535 1535 1534 1535 1534 1534 1533 1533 1532 1531 1529 1529 1528
1534 1530 1529 1525 1521 1517 1512 1507 1503 1499 1496 1492 1490 1488 1486 1483 1480 1481 1485 1480 1477 1477 1479 1486 1491 1492 1490 1490 1489 1490 1489 1490 1494 1501 1507 1512 1514 1515 1528 1538 1538 1537 1536 1536 1534 1534 1535 1534 1534 1533 1532 1530 1528 1527
1531 1529 1525 1522 1518 1513 1508 1504 1500 1497 1494 1492 1490 1489 1487 1485 1484 1484 1483 1481 1478 1477 1481 1489 1494 1495 1495 1493 1493 1493 1493 1496 1501 1507 1513 1517 1521 1527 1539 1541 1540 1538 1538 1537 1535 1534 1535 1534 1533 1533 1532 1531 1529 1527
1530 1526 1522 1518 1514 1510 1505 1502 1498 1495 1492 1491 1490 1489 1488 1487 1486 1487 1486 1484 1481 1484 1491 1501 1505 1501 1499 1498 1496 1496 1497 1503 1508 1513 1519 1523 1532 1541 1544 1542 1541 1540 1539 1537 1536 1535 1535 1534 1533 1532 1532 1531 1530 1529
1529 1524 1520 1515 1511 1507 1504 1500 1496 1493 1490 1489 1489 1489 1489 1490 1488 1489 1487 1486 1488 1494 1502 1512 1511 1507 1505 1501 1499 1499 1501 1507 1515 1521 1523 1532 1545 1545 1544 1543 1542 1541 1540 1538 1537 1536 1535 1534 1533 1532 1530 1529 1529 1527
1526 1522 1518 1514 1510 1506 1502 1498 1494 1491 1490 1489 1489 1491 1491 1490 1489 1490 1495 1500 1506 1513 1517 1517 1516 1513 1508 1507 1503 1503 1506 1510 1522 1522 1528 1540 1549 1547 1546 1544 1543 1541 1540 1539 1538 1536 1535 1534 1533 1531 1529 1528 1527 1525
1524 1520 1516 1513 1509 1505 1501 1498 1494 1491 1491 1491 1492 1492 1492 1494 1496 1502 1519 1519 1522 1528 1525 1522 1520 1517 1511 1509 1507 1508 1510 1514 1525 1526 1535 1548 1550 1548 1546 1545 1543 1541 1539 1538 1536 1535 1534 1533 1531 1530 1529 1527 1526 1524
1523 1518 1515 1512 1508 1505 1501 1498 1495 1493 1493 1493 1494 1497 1505 1514 1523 1538 1547 1542 1539 1532 1529 1527 1523 1518 1515 1513 1512 1512 1517 1522 1525 1536 1547 1552 1550 1549 1547 1545 1543 1541 1539 1537 1535 1534 1532 1531 1530 1529 1528 1527 1525 1523
1522 1518 1516 1512 1509 1505 1501 1498 1495 1494 1494 1498 1507 1524 1531 1546 1546 1546 1546 1543 1539 1534 1530 1527 1524 1522 1520 1518 1519 1522 1527 1528 1541 1549 1555 1552 1550 1549 1547 1545 1542 1540 1538 1536 1534 1532 1531 1530 1529 1528 1527 1525 1524 1523
1521 1519 1517 1512 1510 1507 1504 1500 1496 1495 1500 1512 1524 1546 1549 1549 1548 1546 1543 1539 1537 1533 1530 1528 1527 1526 1525 1527 1528 1531 1539 1547 1548 1553 1554 1552 1550 1548 1546 1544 1541 1539 1537 1535 1533 1531 1530 1529 1528 1527 1525 1524 1523 1521
1522 1520 1518 1516 1512 1510 1508 1506 1504 1501 1516 1530 1544 1550 1551 1549 1547 1544 1541 1538 1535 1532 1531 1531 1530 1535 1538 1538 1542 1548 1553 1556 1556 1555 1554 1552 1550 1548 1546 1544 1541 1538 1536 1534 1532 1530 1529 1528 1526 1525 1523 1522 1521 1519
1522 1521 1520 1520 1516 1510 1510 1510 1511 1521 1537 1548 1558 1557 1555 1553 1550 1547 1543 1539 1535 1534 1535 1534 1545 1548 1545 1554 1558 1555 1560 1558 1556 1554 1553 1551 1549 1547 1545 1542 1540 1537 1534 1532 1530 1529 1527 1526 1524 1523 1522 1520 1519 1517
1523 1522 1522 1521 1522 1520 1515 1517 1528 1544 1555 1560 1560 1559 1557 1555 1552 1548 1545 1541 1538 1537 1539 1545 1547 1556 1564 1570 1565 1561 1559 1557 1555 1553 1551 1548 1547 1545 1543 1540 1537 1534 1532 1530 1528 1526 1525 1524 1522 1521 1519 1517 1516 1514
1525 1524 1524 1523 1523 1523 1528 1538 1543 1554 1563 1564 1564 1563 1560 1559 1557 1553 1550 1547 1544 1543 1545 1549 1557 1566 1563 1562 1561 1560 1558 1556 1553 1551 1548 1546 1545 1543 1540 1537 1535 1532 1530 1528 1526 1524 1522 1521 1519 1518 1516 1514 1512 1511
1528 1526 1525 1526 1527 1528 1538 1549 1552 1558 1565 1568 1567 1566 1564 1563 1562 1558 1554 1551 1549 1548 1554 1561 1565 1565 1563 1561 1560 1558 1556 1554 1552 1549 1547 1545 1543 1540 1538 1535 1532 1530 1528 1526 1524 1523 1521 1519 1517 1515 1513 1511 1509 1506
1533 1532 1531 1529 1528 1535 1546 1554 1559 1564 1567 1568 1569 1568 1569 1568 1566 1563 1561 1560 1558 1562 1566 1567 1566 1564 1562 1560 1558 1556 1555 1553 1551 1548 1545 1542 1541 1538 1536 1533 1531 1529 1527 1525 1523 1521 1519 1516 1514 1512 1509 1507 1505 1502
1537 1537 1536 1536 1540 1548 1555 1561 1564 1567 1569 1570 1571 1571 1571 1571 1570 1569 1569 1567 1569 1572 1570 1568 1566 1563 1561 1559 1557 1555 1553 1551 1548 1546 1544 1541 1538 1536 1534 1531 1529 1527 1525 1523 1520 1518 1516 1513 1511 1508 1505 1503 1501 1498
1540 1540 1541 1544 1549 1556 1568 1566 1567 1569 1571 1573 1574 1574 1575 1575 1575 1574 1575 1577 1576 1575 1572 1569 1566 1563 1561 1559 1556 1554 1551 1549 1546 1544 1541 1539 1537 1534 1532 1531 1528 1525 1523 1521 1518 1516 1513 1510 1508 1505 1502 1499 1496 1493
1542 1544 1549 1553 1558 1565 1569 1570 1572 1574 1575 1577 1577 1580 1579 1578 1578 1578 1580 1580 1580 1576 1572 1569 1566 1563 1561 1558 1555 1553 1550 1548 1545 1543 1540 1538 1536 1535 1532 1529 1526 1524 1521 1519 1516 1514 1510 1507 1504 1501 1498 1495 1491 1488
1548 1560 1561 1565 1568 1569 1572 1576 1578 1577 1584 1583 1583 1583 1583 1582 1582 1584 1584 1582 1579 1576 1572 1569 1566 1564 1561 1558 1555 1552 1550 1547 1544 1541 1540 1538 1536 1533 1531 1528 1525 1522 1520 1517 1514 1511 1507 1504 1501 1498 1495 1492 1488 1485
1560 1569 1570 1573 1576 1575 1579 1585 1585 1586 1585 1586 1586 1586 1585 1584 1588 1590 1587 1584 1581 1577 1573 1569 1566 1563 1560 1558 1554 1551 1549 1546 1544 1542 1540 1538 1536 1533 1529 1526 1523 1521 1518 1515 1511 1508 1504 1501 1498 1495 1492 1489 1485 1482
1573 1577 1579 1580 1580 1581 1583 1586 1587 1587 1589 1591 1589 1587 1587 1596 1594 1591 1589 1586 1582 1578 1574 1571 1567 1564 1560 1557 1555 1552 1549 1547 1544 1542 1540 1539 1536 1533 1530 1526 1522 1520 1516 1513 1509 1505 1501 1498 1495 1492 1489 1486 1482 1479
1580 1583 1583 1584 1584 1585 1586 1589 1590 1593 1593 1593 1593 1593 1595 1595 1595 1593 1590 1587 1583 1579 1575 1571 1567 1564 1561 1558 1555 1552 1550 1547 1545 1542 1541 1540 1536 1533 1529 1526 1522 1519 1515 1511 1506 1502 1499 1496 1492 1489 1486 1483 1480 1477
1586 1587 1587 1588 1588 1589 1592 1594 1595 1596 1596 1594 1594 1594 1595 1595 1595 1593 1591 1588 1583 1579 1575 1570 1567 1565 1562 1559 1556 1554 1551 1548 1545 1542 1540 1537 1533 1530 1528 1524 1520 1516 1512 1508 1505 1501 1498 1495 1490 1486 1483 1480 1478 1475
1590 1589 1590 1592 1593 1597 1599 1598 1599 1598 1597 1596 1596 1596 1596 1596 1595 1594 1592 1588 1583 1579 1575 1571 1568 1566 1563 1560 1558 1556 1553 1550 1546 1544 1540 1537 1535 1531 1526 1523 1519 1515 1510 1507 1503 1499 1496 1493 1489 1486 1483 1479 1476 1474
1593 1593 1595 1597 1600 1602 1602 1601 1601 1600 1599 1598 1598 1597 1597 1596 1596 1594 1592 1589 1585 1581 1576 1573 1570 1568 1565 1562 1559 1556 1554 1552 1549 1546 1543 1540 1536 1531 1527 1523 1519 1514 1510 1506 1501 1498 1494 1491 1488 1484 1481 1478 1475 1473
1597 1598 1599 1601 1604 1604 1603 1602 1602 1602 1601 1601 1600 1599 1598 1597 1597 1595 1593 1589 1585 1581 1578 1575 1572 1570 1567 1564 1562 1559 1556 1553 1550 1547 1542 1539 1537 1532 1528 1524 1519 1514 1510 1505 1501 1496 1492 1489 1486 1483 1480 1477 1474 1471
1602 1602 1602 1603 1604 1604 1604 1603 1603 1603 1603 1602 1602 1601 1600 1599 1598 1598 1594 1590 1587 1583 1580 1577 1575 1572 1570 1567 1564 1561 1558 1555 1552 1548 1545 1541 1538 1534 1529 1524 1519 1515 1510 1505 1500 1496 1492 1488 1485 1481 1478 1475 1472 1469